EZY15AK EGBB-EHAM

Flight info

Callsign EZY15AK
Flight time 0h 50m
Altitude 31000
Route UNGAP P155 SIVDA P137 REDFA
Aircraft A320/M-SDE2E3FGHIJ1RWXYZ/LB1

Departure

Time 2026-05-04 10:41
Airport Birmingham Airport (EGBB)

Arrival

Time 2026-05-04 11:31
Airport Amsterdam Airport Schiphol (EHAM)
Time Latitude Longitude Altitude Speed Heading
2026-05-04 10:16 52.45093 -1.73546 321 ft 0 kts 141°
2026-05-04 10:32 52.45104 -1.73561 322 ft 4 kts 144°
2026-05-04 10:33 52.45127 -1.73584 322 ft 4 kts 161°
2026-05-04 10:33 52.45151 -1.73589 321 ft 4 kts 210°
2026-05-04 10:33 52.45158 -1.73580 323 ft 0 kts 236°
2026-05-04 10:36 52.45150 -1.73601 321 ft 8 kts 236°
2026-05-04 10:36 52.45097 -1.73728 323 ft 18 kts 234°
2026-05-04 10:36 52.44993 -1.73685 323 ft 20 kts 148°
2026-05-04 10:37 52.44864 -1.73672 323 ft 22 kts 193°
2026-05-04 10:37 52.44703 -1.73713 323 ft 24 kts 159°
2026-05-04 10:37 52.44560 -1.73561 323 ft 27 kts 145°
2026-05-04 10:37 52.44426 -1.73424 323 ft 14 kts 161°
2026-05-04 10:39 52.44374 -1.73442 323 ft 0 kts 222°
2026-05-04 10:39 52.44368 -1.73451 322 ft 4 kts 223°
2026-05-04 10:39 52.44331 -1.73522 325 ft 11 kts 237°
2026-05-04 10:40 52.44356 -1.73658 325 ft 17 kts 322°
2026-05-04 10:40 52.44535 -1.73855 325 ft 57 kts 326°
2026-05-04 10:40 52.45055 -1.74431 328 ft 120 kts 326°
2026-05-04 10:40 52.45902 -1.75346 367 ft 166 kts 329°
2026-05-04 10:41 52.46926 -1.76423 678 ft 185 kts 330°
2026-05-04 10:41 52.48049 -1.77620 1171 ft 198 kts 328°
2026-05-04 10:41 52.49227 -1.78936 1739 ft 212 kts 329°
2026-05-04 10:41 52.50632 -1.79812 2319 ft 224 kts 356°
2026-05-04 10:42 52.52190 -1.79396 2905 ft 237 kts 27°
2026-05-04 10:42 52.53452 -1.77590 3476 ft 249 kts 58°
2026-05-04 10:42 52.53942 -1.74852 4047 ft 257 kts 91°
2026-05-04 10:42 52.53639 -1.71926 4624 ft 263 kts 102°
2026-05-04 10:43 52.53217 -1.68984 5183 ft 267 kts 107°
2026-05-04 10:44 52.44063 -1.52808 9127 ft 287 kts 136°
2026-05-04 10:45 52.42642 -1.50496 9713 ft 290 kts 136°
2026-05-04 10:45 52.41206 -1.48164 10265 ft 292 kts 137°
2026-05-04 10:45 52.39757 -1.45812 10809 ft 294 kts 137°
2026-05-04 10:45 52.38299 -1.43448 11358 ft 296 kts 137°
2026-05-04 10:46 52.36853 -1.41040 11904 ft 298 kts 131°
2026-05-04 10:46 52.35924 -1.38007 12471 ft 305 kts 102°
2026-05-04 10:46 52.35800 -1.34528 13061 ft 308 kts 91°
2026-05-04 10:46 52.35812 -1.31011 13649 ft 311 kts 91°
2026-05-04 10:47 52.35836 -1.27458 14201 ft 313 kts 90°
2026-05-04 10:47 52.35863 -1.23882 14734 ft 316 kts 90°
2026-05-04 10:47 52.35888 -1.20275 15278 ft 318 kts 91°
2026-05-04 10:47 52.35906 -1.16639 15829 ft 321 kts 91°
2026-05-04 10:49 52.35937 -0.90287 19753 ft 341 kts 92°
2026-05-04 10:49 52.35935 -0.86395 20306 ft 344 kts 92°
2026-05-04 10:50 52.35933 -0.82471 20872 ft 346 kts 92°
2026-05-04 10:51 52.35900 -0.54730 24858 ft 346 kts 92°
2026-05-04 10:52 52.35895 -0.50807 25394 ft 344 kts 92°
2026-05-04 10:52 52.35884 -0.46907 25948 ft 341 kts 93°
2026-05-04 10:52 52.35867 -0.43048 26499 ft 337 kts 93°
2026-05-04 10:54 52.35714 -0.15070 28233 ft 382 kts 93°
2026-05-04 10:54 52.35689 -0.10711 28370 ft 391 kts 93°
2026-05-04 10:56 52.33951 0.21638 30389 ft 422 kts 101°
2026-05-04 10:56 52.33529 0.26393 30694 ft 423 kts 101°
2026-05-04 10:56 52.33107 0.31160 30972 ft 425 kts 101°
2026-05-04 10:57 52.32682 0.35929 31040 ft 424 kts 101°
2026-05-04 10:57 52.31820 0.45445 31045 ft 423 kts 101°
2026-05-04 10:58 52.30947 0.54974 31046 ft 426 kts 102°
2026-05-04 10:58 52.30035 0.64764 31046 ft 445 kts 102°
2026-05-04 10:59 52.29078 0.74947 31043 ft 461 kts 102°
2026-05-04 10:59 52.28100 0.85340 30935 ft 464 kts 102°
2026-05-04 10:59 52.27612 0.90537 30676 ft 463 kts 103°
2026-05-04 11:00 52.27120 0.95733 30421 ft 463 kts 103°
2026-05-04 11:01 52.23578 1.32245 28470 ft 468 kts 104°
2026-05-04 11:02 52.23057 1.37488 28195 ft 469 kts 103°
2026-05-04 11:02 52.22537 1.42737 27923 ft 470 kts 103°
2026-05-04 11:05 52.14909 2.16912 24286 ft 455 kts 102°
2026-05-04 11:06 52.14375 2.21957 23982 ft 451 kts 102°
2026-05-04 11:06 52.13839 2.26970 23677 ft 448 kts 102°
2026-05-04 11:06 52.13302 2.31949 23327 ft 445 kts 102°
2026-05-04 11:06 52.12772 2.36842 22968 ft 434 kts 102°
2026-05-04 11:08 52.17549 2.65539 20661 ft 389 kts 59°
2026-05-04 11:10 52.26896 2.90668 18446 ft 358 kts 63°
2026-05-04 11:12 52.35294 3.14974 16055 ft 344 kts 60°
2026-05-04 11:12 52.36488 3.18362 15724 ft 343 kts 60°
2026-05-04 11:12 52.37674 3.21738 15385 ft 341 kts 60°
2026-05-04 11:12 52.38849 3.25091 15033 ft 339 kts 60°
2026-05-04 11:13 52.40016 3.28421 14695 ft 336 kts 60°
2026-05-04 11:13 52.41176 3.31734 14361 ft 334 kts 60°
2026-05-04 11:13 52.42329 3.35029 14026 ft 332 kts 60°
2026-05-04 11:13 52.43470 3.38296 13673 ft 330 kts 60°
2026-05-04 11:14 52.44551 3.41608 13295 ft 328 kts 67°
2026-05-04 11:14 52.45241 3.45138 12929 ft 325 kts 77°
2026-05-04 11:14 52.45751 3.48742 12556 ft 323 kts 77°
2026-05-04 11:16 52.49256 3.73240 10113 ft 307 kts 77°
2026-05-04 11:16 52.49739 3.76640 9763 ft 305 kts 77°
2026-05-04 11:16 52.50214 3.80014 9384 ft 302 kts 77°
2026-05-04 11:17 52.50684 3.83361 9018 ft 300 kts 77°
2026-05-04 11:17 52.51144 3.86647 8657 ft 297 kts 77°
2026-05-04 11:19 52.52529 4.09339 7011 ft 282 kts 90°
2026-05-04 11:19 52.52519 4.12563 7010 ft 282 kts 91°
2026-05-04 11:19 52.52505 4.15783 7014 ft 282 kts 91°
2026-05-04 11:19 52.52492 4.19006 7005 ft 282 kts 91°
2026-05-04 11:20 52.52478 4.22221 7006 ft 282 kts 91°
2026-05-04 11:20 52.52463 4.25449 7011 ft 282 kts 91°
2026-05-04 11:20 52.52447 4.28629 7005 ft 282 kts 91°
2026-05-04 11:20 52.52428 4.31853 7013 ft 282 kts 91°
2026-05-04 11:22 52.52292 4.54403 7006 ft 282 kts 91°
2026-05-04 11:22 52.52268 4.57624 6996 ft 282 kts 91°
2026-05-04 11:23 52.52252 4.60844 6995 ft 282 kts 91°
2026-05-04 11:23 52.52240 4.64066 6995 ft 282 kts 91°
2026-05-04 11:24 52.50076 4.82305 5917 ft 276 kts 124°
2026-05-04 11:25 52.49018 4.84900 5658 ft 275 kts 124°
2026-05-04 11:25 52.47960 4.87487 5412 ft 272 kts 125°
2026-05-04 11:25 52.46851 4.89946 5153 ft 264 kts 135°
2026-05-04 11:26 52.43985 4.93277 4656 ft 252 kts 149°
2026-05-04 11:27 52.34087 4.97663 2980 ft 213 kts 216°
2026-05-04 11:28 52.33050 4.96015 2790 ft 204 kts 234°
2026-05-04 11:28 52.32435 4.94022 2522 ft 192 kts 252°
2026-05-04 11:28 52.32241 4.91964 2263 ft 176 kts 266°
2026-05-04 11:28 52.32180 4.90042 2026 ft 162 kts 265°
2026-05-04 11:29 52.32122 4.88270 1951 ft 152 kts 265°
2026-05-04 11:29 52.32066 4.86587 1663 ft 147 kts 265°
2026-05-04 11:29 52.32011 4.84918 1304 ft 147 kts 266°
2026-05-04 11:29 52.31955 4.83240 873 ft 151 kts 267°
2026-05-04 11:31 52.31597 4.76660 -1 ft 7 kts 236°
2026-05-04 11:33 52.31430 4.76332 -1 ft 8 kts 211°
2026-05-04 11:33 52.31382 4.76292 -1 ft 7 kts 207°
2026-05-04 11:33 52.31364 4.76278 -1 ft 0 kts 207°